This is the latest recevied weather packets stored in our database for station/object KC3QLX. If no packets are shown the sender has not sent any weather packets the latest 10 day(s).
| Time | Temp. | Humidity | Pressure | Rain* | Wind** | Luminosity | Snow |
|---|---|---|---|---|---|---|---|
| 1777401137 | 13.89° C | 66% | 1019.7 hPa | 0 mm | - | 102 W/m² | - |
| 1777400833 | 13.89° C | 66% | 1019.6 hPa | 0 mm | - | 86 W/m² | - |
| 1777400530 | 14.44° C | 66% | 1019.8 hPa | 0 mm | - | 85 W/m² | - |
| 1777400227 | 14.44° C | 64% | 1019.7 hPa | 0 mm | - | 106 W/m² | - |
| 1777399923 | 14.44° C | 63% | 1019.5 hPa | 0 mm | - | 150 W/m² | - |
| 1777399620 | 15° C | 63% | 1019.6 hPa | 0 mm | - | 222 W/m² | - |
| 1777399317 | 14.44° C | 61% | 1019.6 hPa | 0 mm | - | 248 W/m² | - |
| 1777399015 | 15° C | 61% | 1019.5 hPa | 0 mm | - | 326 W/m² | - |
| 1777398712 | 14.44° C | 64% | 1019.8 hPa | 0 mm | - | 262 W/m² | - |
| 1777398408 | 13.89° C | 65% | 1020.1 hPa | 0 mm | - | 208 W/m² | - |
| 1777398105 | 13.89° C | 65% | 1019.9 hPa | 0 mm | - | 166 W/m² | - |
| 1777397802 | 14.44° C | 64% | 1020 hPa | 0 mm | - | 130 W/m² | - |
| 1777397498 | 13.89° C | 66% | 1020 hPa | 0 mm | - | 129 W/m² | - |
| 1777397194 | 14.44° C | 66% | 1019.8 hPa | 0 mm | - | 141 W/m² | - |
| 1777396891 | 14.44° C | 66% | 1019.8 hPa | 0 mm | - | 186 W/m² | - |
| 1777396587 | 13.89° C | 66% | 1019.9 hPa | 0 mm | - | 205 W/m² | - |
| 1777396284 | 13.89° C | 66% | 1020 hPa | 0 mm | - | 226 W/m² | - |
| 1777395981 | 13.89° C | 66% | 1020 hPa | 0 mm | - | 203 W/m² | - |
| 1777395675 | 13.89° C | 67% | 1020.1 hPa | 0 mm | - | 196 W/m² | - |
| 1777395372 | 13.89° C | 68% | 1020.2 hPa | 0 mm | - | 173 W/m² | - |
| 1777395070 | 13.89° C | 67% | 1020.2 hPa | 0 mm | - | 203 W/m² | - |
| 1777394767 | 13.89° C | 67% | 1020.1 hPa | 0 mm | - | 237 W/m² | - |
| 1777394462 | 13.89° C | 66% | 1020 hPa | 0 mm | - | 271 W/m² | - |
| 1777394159 | 13.89° C | 69% | 1020 hPa | 0 mm | - | 256 W/m² | - |
| 1777393855 | 13.89° C | 69% | 1020.6 hPa | 0 mm | - | 279 W/m² | - |
* Rain latest hour (hover to see other rain measurements)
** Current wind speed in m/s (hover to see current wind gust speed)